Location: Le Gr�zie
(43.6000°N, 13.5000°E)
Time: 11:56:50
(UTC+00:00)

ATLAS CENTAUR R/B - Pass Details

Date: 09 April 2020
Orbit: 471 x 675 km, 64.7° (Epoch: 01 June)

Event Time Altitude Azimuth Distance (km) Brightness Sun altitude
Rises 20:17:52 0° 333° (NNW) 2,664 5.9 -25.7°
Reaches altitude 10° 20:20:21 10° 345° (NNW) 1,737 4.6 -26.0°
Enters shadow 20:22:26 23° 13° (NNE) 1,117 3.1 -26.3°
